Time,TemperatureF,DewpointF,PressureIn,WindDirection,WindDirectionDegrees,WindSpeedMPH,WindSpeedGustMPH,Humidity,HourlyPrecipIn,Conditions,Clouds,dailyrainin,SoftwareType,DateUTC
2013-05-03 00:00:00,45.4,35.8,30.32,NW,309,13.0,16.0,69,0.00,,,0.01,Wunderground v.1.15,2013-05-03 05:00:00,
2013-05-03 00:10:00,45.4,35.5,30.32,NNW,341,13.0,19.0,68,0.00,,,0.00,Wunderground v.1.15,2013-05-03 05:10:00,
2013-05-03 00:20:00,45.2,35.3,30.33,NNW,346,13.0,13.0,68,0.00,,,0.00,Wunderground v.1.15,2013-05-03 05:20:00,
2013-05-03 00:25:00,45.1,35.2,30.33,NNW,342,12.0,13.0,68,0.00,,,0.00,Wunderground v.1.15,2013-05-03 05:25:00,
2013-05-03 00:30:00,44.9,35.0,30.32,WNW,298,11.0,15.0,68,0.00,,,0.00,Wunderground v.1.15,2013-05-03 05:30:00,
2013-05-03 00:35:00,44.7,35.1,30.33,North,355,12.0,15.0,69,0.00,,,0.00,Wunderground v.1.15,2013-05-03 05:35:00,
2013-05-03 00:40:00,44.5,35.0,30.33,NNW,348,11.0,11.0,69,0.00,,,0.00,Wunderground v.1.15,2013-05-03 05:40:00,
2013-05-03 00:50:00,44.1,35.3,30.32,NNW,333,12.0,12.0,71,0.00,,,0.00,Wunderground v.1.15,2013-05-03 05:50:00,
2013-05-03 00:55:00,43.9,35.5,30.32,NNW,347,11.0,12.0,72,0.00,,,0.00,Wunderground v.1.15,2013-05-03 05:55:00,
2013-05-03 01:00:00,43.6,35.5,30.32,NNW,343,9.0,9.0,73,0.00,,,0.00,Wunderground v.1.15,2013-05-03 06:00:00,
2013-05-03 01:10:00,43.2,35.1,30.32,NNW,338,11.0,11.0,73,0.00,,,0.00,Wunderground v.1.15,2013-05-03 06:10:00,
2013-05-03 01:15:00,43.0,35.3,30.32,NW,319,11.0,11.0,74,0.00,,,0.00,Wunderground v.1.15,2013-05-03 06:15:00,
2013-05-03 01:20:00,42.9,35.2,30.32,North,350,10.0,10.0,74,0.00,,,0.00,Wunderground v.1.15,2013-05-03 06:20:00,
2013-05-03 01:25:00,42.7,35.0,30.32,NNW,336,10.0,10.0,74,0.00,,,0.00,Wunderground v.1.15,2013-05-03 06:25:00,
2013-05-03 01:35:00,42.5,34.8,30.32,NW,325,9.0,12.0,74,0.00,,,0.00,Wunderground v.1.15,2013-05-03 06:35:00,
2013-05-03 01:40:00,42.5,34.8,30.31,NW,322,9.0,13.0,74,0.00,,,0.00,Wunderground v.1.15,2013-05-03 06:40:00,
2013-05-03 01:45:00,42.4,35.0,30.31,NW,325,10.0,13.0,75,0.00,,,0.00,Wunderground v.1.15,2013-05-03 06:45:00,
2013-05-03 01:50:00,42.3,34.6,30.31,NW,304,9.0,16.0,74,0.00,,,0.00,Wunderground v.1.15,2013-05-03 06:50:00,
2013-05-03 02:00:00,42.1,34.7,30.31,NNW,327,10.0,10.0,75,0.00,,,0.00,Wunderground v.1.15,2013-05-03 07:00:00,
2013-05-03 02:10:00,41.9,34.6,30.31,NNW,329,8.0,11.0,75,0.00,,,0.00,Wunderground v.1.15,2013-05-03 07:10:00,
2013-05-03 02:20:00,41.7,34.4,30.31,NW,325,10.0,12.0,75,0.00,,,0.00,Wunderground v.1.15,2013-05-03 07:20:00,
2013-05-03 02:25:00,41.6,34.3,30.31,WNW,302,10.0,16.0,75,0.00,,,0.00,Wunderground v.1.15,2013-05-03 07:25:00,
2013-05-03 02:30:00,41.6,34.3,30.31,NW,321,11.0,14.0,75,0.00,,,0.00,Wunderground v.1.15,2013-05-03 07:30:00,
2013-05-03 02:35:00,41.6,34.3,30.31,NW,316,11.0,14.0,75,0.00,,,0.00,Wunderground v.1.15,2013-05-03 07:35:00,
2013-05-03 02:45:00,41.4,34.1,30.30,NW,325,10.0,10.0,75,0.00,,,0.00,Wunderground v.1.15,2013-05-03 07:45:00,
2013-05-03 02:50:00,41.5,34.2,30.30,NNW,331,11.0,11.0,75,0.00,,,0.00,Wunderground v.1.15,2013-05-03 07:50:00,
2013-05-03 02:55:00,41.4,34.1,30.30,NW,317,11.0,14.0,75,0.00,,,0.00,Wunderground v.1.15,2013-05-03 07:55:00,
2013-05-03 03:00:00,41.3,34.0,30.30,NW,320,12.0,12.0,75,0.00,,,0.00,Wunderground v.1.15,2013-05-03 08:00:00,
2013-05-03 03:10:00,41.1,33.8,30.30,NW,321,12.0,12.0,75,0.00,,,0.00,Wunderground v.1.15,2013-05-03 08:10:00,
2013-05-03 03:15:00,41.1,33.8,30.30,NW,309,13.0,13.0,75,0.00,,,0.00,Wunderground v.1.15,2013-05-03 08:15:00,
2013-05-03 03:20:00,41.1,33.8,30.30,NW,315,12.0,14.0,75,0.00,,,0.00,Wunderground v.1.15,2013-05-03 08:20:00,
2013-05-03 03:25:00,41.1,33.4,30.30,NW,307,12.0,14.0,74,0.00,,,0.00,Wunderground v.1.15,2013-05-03 08:25:00,
2013-05-03 03:35:00,40.9,33.2,30.30,NW,321,11.0,12.0,74,0.00,,,0.00,Wunderground v.1.15,2013-05-03 08:35:00,
2013-05-03 03:40:00,41.0,33.3,30.30,NW,326,12.0,13.0,74,0.00,,,0.00,Wunderground v.1.15,2013-05-03 08:40:00,
2013-05-03 03:45:00,40.9,33.2,30.30,NW,310,11.0,13.0,74,0.00,,,0.00,Wunderground v.1.15,2013-05-03 08:45:00,
2013-05-03 03:50:00,40.8,33.5,30.30,NNW,327,10.0,12.0,75,0.00,,,0.00,Wunderground v.1.15,2013-05-03 08:50:00,
2013-05-03 04:00:00,40.7,33.4,30.30,NNW,336,10.0,10.0,75,0.00,,,0.00,Wunderground v.1.15,2013-05-03 09:00:00,
2013-05-03 04:10:00,40.6,33.3,30.30,NNW,328,10.0,10.0,75,0.00,,,0.00,Wunderground v.1.15,2013-05-03 09:10:00,
2013-05-03 04:15:00,40.5,33.2,30.30,NW,316,10.0,14.0,75,0.00,,,0.00,Wunderground v.1.15,2013-05-03 09:15:00,
2013-05-03 04:20:00,40.5,33.2,30.30,NW,323,11.0,11.0,75,0.00,,,0.00,Wunderground v.1.15,2013-05-03 09:20:00,
2013-05-03 04:25:00,40.5,33.2,30.30,NW,316,10.0,11.0,75,0.00,,,0.00,Wunderground v.1.15,2013-05-03 09:25:00,
2013-05-03 04:30:00,40.5,33.2,30.30,NW,326,10.0,10.0,75,0.00,,,0.00,Wunderground v.1.15,2013-05-03 09:30:00,
2013-05-03 04:35:00,40.4,33.1,30.30,NNW,333,9.0,12.0,75,0.00,,,0.00,Wunderground v.1.15,2013-05-03 09:35:00,
2013-05-03 04:45:00,40.2,33.2,30.30,NNW,328,9.0,11.0,76,0.00,,,0.00,Wunderground v.1.15,2013-05-03 09:45:00,
2013-05-03 04:50:00,40.1,33.1,30.30,NNW,336,9.0,9.0,76,0.00,,,0.00,Wunderground v.1.15,2013-05-03 09:50:00,
2013-05-03 04:55:00,39.9,33.3,30.30,NW,310,8.0,11.0,77,0.00,,,0.00,Wunderground v.1.15,2013-05-03 09:55:00,
2013-05-03 05:00:00,39.8,33.2,30.30,NW,321,8.0,8.0,77,0.00,,,0.00,Wunderground v.1.15,2013-05-03 10:00:00,
2013-05-03 05:10:00,39.4,33.1,30.30,NW,319,8.0,11.0,78,0.00,,,0.00,Wunderground v.1.15,2013-05-03 10:10:00,
2013-05-03 05:15:00,39.2,32.9,30.30,NW,318,8.0,11.0,78,0.00,,,0.00,Wunderground v.1.15,2013-05-03 10:15:00,
2013-05-03 05:20:00,39.1,33.1,30.30,NW,309,9.0,9.0,79,0.00,,,0.00,Wunderground v.1.15,2013-05-03 10:20:00,
2013-05-03 05:30:00,38.8,32.8,30.30,NW,317,8.0,8.0,79,0.00,,,0.00,Wunderground v.1.15,2013-05-03 10:30:00,
2013-05-03 05:35:00,38.6,32.6,30.30,NW,317,8.0,8.0,79,0.00,,,0.00,Wunderground v.1.15,2013-05-03 10:35:00,
2013-05-03 05:40:00,38.6,33.0,30.29,NW,315,8.0,9.0,80,0.00,,,0.00,Wunderground v.1.15,2013-05-03 10:40:00,
2013-05-03 05:45:00,38.5,32.9,30.30,NW,313,8.0,9.0,80,0.00,,,0.00,Wunderground v.1.15,2013-05-03 10:45:00,
2013-05-03 05:50:00,38.4,32.8,30.30,NW,313,8.0,8.0,80,0.00,,,0.00,Wunderground v.1.15,2013-05-03 10:50:00,
2013-05-03 06:00:00,38.2,32.6,30.30,NW,316,8.0,8.0,80,0.00,,,0.00,Wunderground v.1.15,2013-05-03 11:00:00,
2013-05-03 06:10:00,38.1,32.5,30.29,NW,319,8.0,10.0,80,0.00,,,0.00,Wunderground v.1.15,2013-05-03 11:10:00,
2013-05-03 06:15:00,38.0,32.4,30.30,NW,307,8.0,10.0,80,0.00,,,0.00,Wunderground v.1.15,2013-05-03 11:15:00,
2013-05-03 06:20:00,38.0,32.4,30.30,NW,317,8.0,8.0,80,0.00,,,0.00,Wunderground v.1.15,2013-05-03 11:20:00,
2013-05-03 06:25:00,38.0,32.7,30.29,NNW,327,9.0,9.0,81,0.00,,,0.00,Wunderground v.1.15,2013-05-03 11:25:00,
2013-05-03 06:30:00,37.9,32.6,30.29,NW,320,8.0,8.0,81,0.00,,,0.00,Wunderground v.1.15,2013-05-03 11:30:00,
2013-05-03 06:40:00,37.8,32.5,30.29,NW,313,7.0,11.0,81,0.00,,,0.00,Wunderground v.1.15,2013-05-03 11:40:00,
2013-05-03 06:45:00,37.7,32.4,30.29,NW,320,7.0,11.0,81,0.00,,,0.00,Wunderground v.1.15,2013-05-03 11:45:00,
2013-05-03 06:50:00,37.8,32.5,30.30,NW,317,8.0,8.0,81,0.00,,,0.00,Wunderground v.1.15,2013-05-03 11:50:00,
2013-05-03 06:55:00,38.0,32.4,30.30,NW,312,8.0,8.0,80,0.00,,,0.00,Wunderground v.1.15,2013-05-03 11:55:00,
2013-05-03 07:00:00,38.0,32.4,30.30,NW,314,7.0,9.0,80,0.00,,,0.00,Wunderground v.1.15,2013-05-03 12:00:00,
2013-05-03 07:10:00,38.4,32.5,30.30,NW,313,8.0,11.0,79,0.00,,,0.00,Wunderground v.1.15,2013-05-03 12:10:00,
2013-05-03 07:15:00,38.6,32.6,30.30,NW,318,8.0,12.0,79,0.00,,,0.00,Wunderground v.1.15,2013-05-03 12:15:00,
2013-05-03 07:25:00,39.1,32.8,30.30,WNW,303,8.0,12.0,78,0.00,,,0.00,Wunderground v.1.15,2013-05-03 12:25:00,
2013-05-03 07:30:00,39.4,32.8,30.31,NW,315,7.0,8.0,77,0.00,,,0.00,Wunderground v.1.15,2013-05-03 12:30:00,
2013-05-03 07:35:00,39.7,32.8,30.31,NW,307,8.0,8.0,76,0.00,,,0.00,Wunderground v.1.15,2013-05-03 12:35:00,
2013-05-03 07:40:00,40.1,32.8,30.31,NW,313,9.0,11.0,75,0.00,,,0.00,Wunderground v.1.15,2013-05-03 12:40:00,
2013-05-03 07:45:00,40.5,33.2,30.31,NW,313,9.0,11.0,75,0.00,,,0.00,Wunderground v.1.15,2013-05-03 12:45:00,
2013-05-03 07:55:00,41.2,33.2,30.31,NW,310,9.0,9.0,73,0.00,,,0.00,Wunderground v.1.15,2013-05-03 12:55:00,
2013-05-03 08:00:00,41.5,33.5,30.30,NW,308,8.0,11.0,73,0.00,,,0.00,Wunderground v.1.15,2013-05-03 13:00:00,
2013-05-03 08:10:00,42.2,33.8,30.30,WNW,300,9.0,9.0,72,0.00,,,0.00,Wunderground v.1.15,2013-05-03 13:10:00,
2013-05-03 08:15:00,42.7,33.9,30.31,WNW,298,9.0,9.0,71,0.00,,,0.00,Wunderground v.1.15,2013-05-03 13:15:00,
2013-05-03 08:20:00,43.3,34.5,30.31,NW,308,9.0,9.0,71,0.00,,,0.00,Wunderground v.1.15,2013-05-03 13:20:00,
2013-05-03 08:25:00,44.1,34.6,30.30,NW,324,8.0,11.0,69,0.00,,,0.00,Wunderground v.1.15,2013-05-03 13:25:00,
2013-05-03 08:30:00,44.7,34.8,30.30,NW,305,8.0,8.0,68,0.00,,,0.00,Wunderground v.1.15,2013-05-03 13:30:00,
2013-05-03 08:40:00,45.8,35.1,30.30,NW,305,8.0,11.0,66,0.00,,,0.00,Wunderground v.1.15,2013-05-03 13:40:00,
2013-05-03 08:45:00,46.4,35.3,30.30,WNW,303,8.0,11.0,65,0.00,,,0.00,Wunderground v.1.15,2013-05-03 13:45:00,
2013-05-03 08:50:00,46.8,35.3,30.30,NW,318,10.0,12.0,64,0.00,,,0.00,Wunderground v.1.15,2013-05-03 13:50:00,
2013-05-03 08:55:00,47.3,35.3,30.30,NW,307,10.0,12.0,63,0.00,,,0.00,Wunderground v.1.15,2013-05-03 13:55:00,
2013-05-03 09:00:00,47.7,35.7,30.30,NNW,329,11.0,11.0,63,0.00,,,0.00,Wunderground v.1.15,2013-05-03 14:00:00,
2013-05-03 09:10:00,48.4,35.6,30.29,NW,305,12.0,12.0,61,0.00,,,0.00,Wunderground v.1.15,2013-05-03 14:10:00,
2013-05-03 09:20:00,49.3,35.6,30.29,NW,321,11.0,11.0,59,0.00,,,0.00,Wunderground v.1.15,2013-05-03 14:20:00,
2013-05-03 09:25:00,49.8,36.0,30.29,NW,304,11.0,11.0,59,0.00,,,0.00,Wunderground v.1.15,2013-05-03 14:25:00,
2013-05-03 09:30:00,50.4,36.2,30.29,WNW,301,10.0,10.0,58,0.00,,,0.00,Wunderground v.1.15,2013-05-03 14:30:00,
2013-05-03 09:35:00,50.8,35.7,30.29,NW,307,12.0,16.0,56,0.00,,,0.00,Wunderground v.1.15,2013-05-03 14:35:00,
2013-05-03 09:40:00,51.0,36.3,30.29,WNW,300,13.0,13.0,57,0.00,,,0.00,Wunderground v.1.15,2013-05-03 14:40:00,
2013-05-03 09:50:00,52.1,35.9,30.29,NW,310,11.0,14.0,54,0.00,,,0.00,Wunderground v.1.15,2013-05-03 14:50:00,
2013-05-03 09:55:00,52.8,36.1,30.29,NNW,330,12.0,14.0,53,0.00,,,0.00,Wunderground v.1.15,2013-05-03 14:55:00,
2013-05-03 10:00:00,53.1,36.4,30.29,NW,315,10.0,10.0,53,0.00,,,0.00,Wunderground v.1.15,2013-05-03 15:00:00,
2013-05-03 10:10:00,54.3,35.5,30.28,NW,323,10.0,10.0,49,0.00,,,0.00,Wunderground v.1.15,2013-05-03 15:10:00,
2013-05-03 10:15:00,54.9,33.4,30.28,NNW,334,12.0,15.0,44,0.00,,,0.00,Wunderground v.1.15,2013-05-03 15:15:00,
2013-05-03 10:25:00,55.3,31.4,30.28,North,355,15.0,19.0,40,0.00,,,0.00,Wunderground v.1.15,2013-05-03 15:25:00,
2013-05-03 10:30:00,55.4,30.8,30.28,NNE,15,16.0,16.0,39,0.00,,,0.00,Wunderground v.1.15,2013-05-03 15:30:00,
2013-05-03 10:35:00,56.0,32.0,30.28,NNW,344,14.0,21.0,40,0.00,,,0.00,Wunderground v.1.15,2013-05-03 15:35:00,
2013-05-03 10:40:00,56.1,32.1,30.28,North,360,14.0,14.0,40,0.00,,,0.00,Wunderground v.1.15,2013-05-03 15:40:00,
2013-05-03 10:45:00,56.2,32.2,30.28,NW,315,14.0,14.0,40,0.00,,,0.00,Wunderground v.1.15,2013-05-03 15:45:00,
2013-05-03 10:55:00,57.2,31.8,30.28,NNW,332,12.0,18.0,38,0.00,,,0.00,Wunderground v.1.15,2013-05-03 15:55:00,
2013-05-03 11:00:00,57.2,32.4,30.28,NNW,330,13.0,15.0,39,0.00,,,0.00,Wunderground v.1.15,2013-05-03 16:00:00,
2013-05-03 11:10:00,58.2,32.7,30.28,NNW,331,12.0,15.0,38,0.00,,,0.00,Wunderground v.1.15,2013-05-03 16:10:00,
2013-05-03 11:15:00,58.4,33.5,30.27,NW,315,13.0,18.0,39,0.00,,,0.00,Wunderground v.1.15,2013-05-03 16:15:00,
2013-05-03 11:20:00,58.2,33.3,30.27,NNW,334,14.0,14.0,39,0.00,,,0.00,Wunderground v.1.15,2013-05-03 16:20:00,
2013-05-03 11:25:00,59.2,31.5,30.27,NNW,336,14.0,14.0,35,0.00,,,0.00,Wunderground v.1.15,2013-05-03 16:25:00,
2013-05-03 11:35:00,59.9,32.2,30.27,NW,325,13.0,18.0,35,0.00,,,0.00,Wunderground v.1.15,2013-05-03 16:35:00,
2013-05-03 11:40:00,60.2,29.4,30.27,NNW,338,13.0,13.0,31,0.00,,,0.00,Wunderground v.1.15,2013-05-03 16:40:00,
2013-05-03 11:45:00,60.4,31.1,30.26,NNW,344,14.0,16.0,33,0.00,,,0.00,Wunderground v.1.15,2013-05-03 16:45:00,
2013-05-03 11:50:00,60.7,31.4,30.26,NNW,327,13.0,18.0,33,0.00,,,0.00,Wunderground v.1.15,2013-05-03 16:50:00,
2013-05-03 11:55:00,60.6,31.3,30.26,NNW,348,14.0,18.0,33,0.00,,,0.00,Wunderground v.1.15,2013-05-03 16:55:00,
2013-05-03 12:00:00,61.0,30.9,30.26,North,360,14.0,16.0,32,0.00,,,0.00,Wunderground v.1.15,2013-05-03 17:00:00,
2013-05-03 12:10:00,61.4,29.7,30.25,NNW,336,15.0,15.0,30,0.00,,,0.00,Wunderground v.1.15,2013-05-03 17:10:00,
2013-05-03 12:20:00,61.5,29.7,30.25,NW,310,15.0,15.0,30,0.00,,,0.00,Wunderground v.1.15,2013-05-03 17:20:00,
2013-05-03 12:25:00,61.6,28.1,30.25,NW,325,16.0,29.0,28,0.00,,,0.00,Wunderground v.1.15,2013-05-03 17:25:00,
2013-05-03 12:30:00,61.7,29.1,30.25,North,355,15.0,21.0,29,0.00,,,0.00,Wunderground v.1.15,2013-05-03 17:30:00,
2013-05-03 12:35:00,61.8,29.2,30.24,NNW,348,14.0,21.0,29,0.00,,,0.00,Wunderground v.1.15,2013-05-03 17:35:00,
2013-05-03 12:40:00,62.7,29.1,30.24,NW,315,13.0,20.0,28,0.00,,,0.00,Wunderground v.1.15,2013-05-03 17:40:00,
2013-05-03 12:50:00,62.4,28.8,30.23,NNW,344,15.0,19.0,28,0.00,,,0.00,Wunderground v.1.15,2013-05-03 17:50:00,
2013-05-03 12:55:00,62.6,29.9,30.22,North,5,14.0,19.0,29,0.00,,,0.00,Wunderground v.1.15,2013-05-03 17:55:00,
2013-05-03 13:00:00,62.8,28.3,30.22,North,9,14.0,15.0,27,0.00,,,0.00,Wunderground v.1.15,2013-05-03 18:00:00,
2013-05-03 13:10:00,63.2,29.5,30.22,NW,319,14.0,14.0,28,0.00,,,0.00,Wunderground v.1.15,2013-05-03 18:10:00,
2013-05-03 13:15:00,63.6,29.0,30.22,NNW,330,14.0,14.0,27,0.00,,,0.00,Wunderground v.1.15,2013-05-03 18:15:00,
2013-05-03 13:20:00,63.9,28.3,30.21,NW,321,13.0,15.0,26,0.00,,,0.00,Wunderground v.1.15,2013-05-03 18:20:00,
2013-05-03 13:30:00,64.2,31.3,30.20,NNE,18,13.0,13.0,29,0.00,,,0.00,Wunderground v.1.15,2013-05-03 18:30:00,
2013-05-03 13:35:00,64.0,29.3,30.21,NNW,336,13.0,14.0,27,0.00,,,0.00,Wunderground v.1.15,2013-05-03 18:35:00,
2013-05-03 13:40:00,64.1,29.4,30.20,NNW,346,13.0,24.0,27,0.00,,,0.00,Wunderground v.1.15,2013-05-03 18:40:00,
2013-05-03 13:45:00,64.2,28.6,30.19,NW,319,14.0,24.0,26,0.00,,,0.00,Wunderground v.1.15,2013-05-03 18:45:00,
2013-05-03 13:50:00,64.0,30.2,30.19,NNW,335,15.0,15.0,28,0.00,,,0.00,Wunderground v.1.15,2013-05-03 18:50:00,
2013-05-03 14:00:00,64.3,28.7,30.18,NNW,348,12.0,12.0,26,0.00,,,0.00,Wunderground v.1.15,2013-05-03 19:00:00,
2013-05-03 14:10:00,64.4,30.6,30.18,NW,321,13.0,15.0,28,0.00,,,0.00,Wunderground v.1.15,2013-05-03 19:10:00,
2013-05-03 14:15:00,65.0,30.2,30.18,NW,306,14.0,16.0,27,0.00,,,0.00,Wunderground v.1.15,2013-05-03 19:15:00,
2013-05-03 14:20:00,65.4,29.6,30.18,NNE,13,13.0,13.0,26,0.00,,,0.00,Wunderground v.1.15,2013-05-03 19:20:00,
2013-05-03 14:25:00,65.3,29.5,30.18,NNW,345,12.0,22.0,26,0.00,,,0.00,Wunderground v.1.15,2013-05-03 19:25:00,
2013-05-03 14:30:00,64.9,29.2,30.17,NW,321,14.0,22.0,26,0.00,,,0.00,Wunderground v.1.15,2013-05-03 19:30:00,
2013-05-03 14:35:00,64.9,31.9,30.17,NNW,340,15.0,22.0,29,0.00,,,0.00,Wunderground v.1.15,2013-05-03 19:35:00,
2013-05-03 14:45:00,64.9,30.1,30.16,NNW,333,15.0,15.0,27,0.00,,,0.00,Wunderground v.1.15,2013-05-03 19:45:00,
2013-05-03 14:50:00,65.5,31.5,30.16,NNW,330,15.0,16.0,28,0.00,,,0.00,Wunderground v.1.15,2013-05-03 19:50:00,
2013-05-03 14:55:00,65.6,31.6,30.15,NW,304,12.0,19.0,28,0.00,,,0.00,Wunderground v.1.15,2013-05-03 19:55:00,
2013-05-03 15:00:00,65.8,29.9,30.16,NNW,328,12.0,12.0,26,0.00,,,0.00,Wunderground v.1.15,2013-05-03 20:00:00,
2013-05-03 15:10:00,65.2,30.3,30.14,NW,305,12.0,18.0,27,0.00,,,0.00,Wunderground v.1.15,2013-05-03 20:10:00,
2013-05-03 15:15:00,65.3,29.5,30.14,NNW,330,14.0,18.0,26,0.00,,,0.00,Wunderground v.1.15,2013-05-03 20:15:00,
2013-05-03 15:20:00,65.5,31.5,30.14,WNW,302,14.0,14.0,28,0.00,,,0.00,Wunderground v.1.15,2013-05-03 20:20:00,
2013-05-03 15:30:00,66.1,30.2,30.13,NW,311,12.0,24.0,26,0.00,,,0.00,Wunderground v.1.15,2013-05-03 20:30:00,
2013-05-03 15:35:00,66.1,31.1,30.13,NW,319,15.0,24.0,27,0.00,,,0.00,Wunderground v.1.15,2013-05-03 20:35:00,
2013-05-03 15:40:00,66.4,31.4,30.13,NW,313,15.0,15.0,27,0.00,,,0.00,Wunderground v.1.15,2013-05-03 20:40:00,
2013-05-03 15:45:00,66.4,31.4,30.12,West,278,11.0,15.0,27,0.00,,,0.00,Wunderground v.1.15,2013-05-03 20:45:00,
2013-05-03 15:55:00,66.5,29.6,30.11,NW,309,11.0,13.0,25,0.00,,,0.00,Wunderground v.1.15,2013-05-03 20:55:00,
2013-05-03 16:00:00,66.0,30.1,30.11,NNW,328,12.0,12.0,26,0.00,,,0.00,Wunderground v.1.15,2013-05-03 21:00:00,
2013-05-03 16:10:00,66.1,32.0,30.11,NNE,24,12.0,12.0,28,0.00,,,0.00,Wunderground v.1.15,2013-05-03 21:10:00,
2013-05-03 16:15:00,66.2,31.2,30.10,North,355,10.0,12.0,27,0.00,,,0.00,Wunderground v.1.15,2013-05-03 21:15:00,
2013-05-03 16:20:00,66.5,29.6,30.10,WNW,301,10.0,13.0,25,0.00,,,0.00,Wunderground v.1.15,2013-05-03 21:20:00,
2013-05-03 16:25:00,65.8,29.0,30.10,WNW,300,13.0,16.0,25,0.00,,,0.00,Wunderground v.1.15,2013-05-03 21:25:00,
2013-05-03 16:30:00,65.9,30.0,30.09,West,272,15.0,18.0,26,0.00,,,0.00,Wunderground v.1.15,2013-05-03 21:30:00,
2013-05-03 16:40:00,66.8,29.8,30.09,NW,308,15.0,24.0,25,0.00,,,0.00,Wunderground v.1.15,2013-05-03 21:40:00,
2013-05-03 16:45:00,66.8,29.8,30.09,North,360,14.0,24.0,25,0.00,,,0.00,Wunderground v.1.15,2013-05-03 21:45:00,
2013-05-03 16:50:00,66.9,29.9,30.09,NNW,327,12.0,12.0,25,0.00,,,0.00,Wunderground v.1.15,2013-05-03 21:50:00,
2013-05-03 16:55:00,67.1,30.1,30.09,NW,311,12.0,13.0,25,0.00,,,0.00,Wunderground v.1.15,2013-05-03 21:55:00,
2013-05-03 17:00:00,67.2,31.1,30.09,NNW,338,12.0,12.0,26,0.00,,,0.00,Wunderground v.1.15,2013-05-03 22:00:00,
2013-05-03 17:10:00,67.2,31.1,30.08,NW,318,11.0,13.0,26,0.00,,,0.00,Wunderground v.1.15,2013-05-03 22:10:00,
2013-05-03 17:15:00,67.7,30.6,30.08,NW,323,9.0,13.0,25,0.00,,,0.00,Wunderground v.1.15,2013-05-03 22:15:00,
2013-05-03 17:20:00,67.8,31.6,30.08,West,273,9.0,9.0,26,0.00,,,0.00,Wunderground v.1.15,2013-05-03 22:20:00,
2013-05-03 17:30:00,67.5,29.4,30.08,NW,309,11.0,13.0,24,0.00,,,0.00,Wunderground v.1.15,2013-05-03 22:30:00,
2013-05-03 17:35:00,67.0,30.0,30.08,WNW,287,12.0,13.0,25,0.00,,,0.00,Wunderground v.1.15,2013-05-03 22:35:00,
2013-05-03 17:40:00,67.0,31.0,30.08,NNW,346,11.0,11.0,26,0.00,,,0.00,Wunderground v.1.15,2013-05-03 22:40:00,
2013-05-03 17:45:00,67.2,31.1,30.08,WNW,284,9.0,15.0,26,0.00,,,0.00,Wunderground v.1.15,2013-05-03 22:45:00,
2013-05-03 17:55:00,67.2,29.2,30.07,NW,319,12.0,14.0,24,0.00,,,0.00,Wunderground v.1.15,2013-05-03 22:55:00,
2013-05-03 18:00:00,66.9,28.9,30.07,NNW,331,13.0,13.0,24,0.00,,,0.00,Wunderground v.1.15,2013-05-03 23:00:00,
2013-05-03 18:10:00,66.6,28.6,30.07,NW,304,11.0,11.0,24,0.00,,,0.00,Wunderground v.1.15,2013-05-03 23:10:00,
2013-05-03 18:15:00,66.3,28.4,30.07,WNW,302,11.0,12.0,24,0.00,,,0.00,Wunderground v.1.15,2013-05-03 23:15:00,
2013-05-03 18:20:00,66.1,29.2,30.07,NW,304,11.0,11.0,25,0.00,,,0.00,Wunderground v.1.15,2013-05-03 23:20:00,
2013-05-03 18:25:00,66.2,29.3,30.06,NW,319,11.0,11.0,25,0.00,,,0.00,Wunderground v.1.15,2013-05-03 23:25:00,
2013-05-03 18:35:00,66.2,30.3,30.06,WNW,300,9.0,16.0,26,0.00,,,0.00,Wunderground v.1.15,2013-05-03 23:35:00,
2013-05-03 18:40:00,66.4,28.5,30.06,WNW,286,9.0,9.0,24,0.00,,,0.00,Wunderground v.1.15,2013-05-03 23:40:00,
2013-05-03 18:45:00,66.3,29.4,30.06,NW,307,8.0,9.0,25,0.00,,,0.00,Wunderground v.1.15,2013-05-03 23:45:00,
2013-05-03 18:50:00,66.3,29.4,30.06,NW,316,7.0,7.0,25,0.00,,,0.00,Wunderground v.1.15,2013-05-03 23:50:00,
2013-05-03 18:55:00,66.2,28.3,30.06,NNW,330,7.0,10.0,24,0.00,,,0.00,Wunderground v.1.15,2013-05-03 23:55:00,
2013-05-03 19:00:00,65.9,29.1,30.06,NW,323,8.0,8.0,25,0.00,,,0.00,Wunderground v.1.15,2013-05-04 00:00:00,
2013-05-03 19:10:00,65.3,28.5,30.05,NNW,348,7.0,14.0,25,0.00,,,0.00,Wunderground v.1.15,2013-05-04 00:10:00,
2013-05-03 19:15:00,64.9,29.2,30.05,NNW,336,7.0,14.0,26,0.00,,,0.00,Wunderground v.1.15,2013-05-04 00:15:00,
2013-05-03 19:25:00,64.0,28.4,30.05,NW,315,6.0,7.0,26,0.00,,,0.00,Wunderground v.1.15,2013-05-04 00:25:00,
2013-05-03 19:30:00,63.5,28.9,30.05,NW,318,6.0,9.0,27,0.00,,,0.00,Wunderground v.1.15,2013-05-04 00:30:00,
2013-05-03 19:35:00,63.1,28.5,30.05,NW,309,6.0,9.0,27,0.00,,,0.00,Wunderground v.1.15,2013-05-04 00:35:00,
2013-05-03 19:40:00,62.9,28.4,30.05,NW,315,5.0,5.0,27,0.00,,,0.00,Wunderground v.1.15,2013-05-04 00:40:00,
2013-05-03 19:45:00,62.6,28.1,30.05,NW,312,4.0,6.0,27,0.00,,,0.00,Wunderground v.1.15,2013-05-04 00:45:00,
2013-05-03 19:55:00,62.0,28.5,30.05,NW,313,3.0,4.0,28,0.00,,,0.00,Wunderground v.1.15,2013-05-04 00:55:00,
2013-05-03 20:00:00,61.7,28.2,30.05,NW,311,3.0,4.0,28,0.00,,,0.00,Wunderground v.1.15,2013-05-04 01:00:00,
2013-05-03 20:10:00,61.2,28.7,30.05,NW,311,2.0,2.0,29,0.00,,,0.00,Wunderground v.1.15,2013-05-04 01:10:00,
2013-05-03 20:15:00,60.9,29.2,30.05,NW,311,0.0,2.0,30,0.00,,,0.00,Wunderground v.1.15,2013-05-04 01:15:00,
2013-05-03 20:20:00,60.5,29.7,30.05,NW,311,0.0,0.0,31,0.00,,,0.00,Wunderground v.1.15,2013-05-04 01:20:00,
2013-05-03 20:25:00,59.9,29.9,30.05,NW,311,0.0,0.0,32,0.00,,,0.00,Wunderground v.1.15,2013-05-04 01:25:00,
2013-05-03 20:35:00,58.8,30.5,30.04,NW,311,0.0,0.0,34,0.00,,,0.00,Wunderground v.1.15,2013-05-04 01:35:00,
2013-05-03 20:40:00,58.3,30.7,30.04,NW,311,0.0,0.0,35,0.00,,,0.00,Wunderground v.1.15,2013-05-04 01:40:00,
2013-05-03 20:45:00,57.7,31.6,30.04,NW,311,0.0,0.0,37,0.00,,,0.00,Wunderground v.1.15,2013-05-04 01:45:00,
2013-05-03 20:50:00,57.0,31.0,30.04,NW,311,0.0,0.0,37,0.00,,,0.00,Wunderground v.1.15,2013-05-04 01:50:00,
2013-05-03 21:00:00,55.7,32.3,30.04,NW,311,0.0,0.0,41,0.00,,,0.00,Wunderground v.1.15,2013-05-04 02:00:00,
2013-05-03 21:10:00,54.6,32.5,30.04,NW,311,0.0,0.0,43,0.00,,,0.00,Wunderground v.1.15,2013-05-04 02:10:00,
2013-05-03 21:20:00,53.7,33.4,30.04,NW,311,0.0,0.0,46,0.00,,,0.00,Wunderground v.1.15,2013-05-04 02:20:00,
2013-05-03 21:25:00,53.2,32.9,30.04,NW,311,0.0,0.0,46,0.00,,,0.00,Wunderground v.1.15,2013-05-04 02:25:00,
2013-05-03 21:30:00,52.9,33.2,30.04,NW,311,0.0,0.0,47,0.00,,,0.00,Wunderground v.1.15,2013-05-04 02:30:00,
2013-05-03 21:35:00,52.4,32.7,30.04,NW,311,0.0,0.0,47,0.00,,,0.00,Wunderground v.1.15,2013-05-04 02:35:00,
2013-05-03 21:40:00,52.0,33.4,30.04,NW,311,0.0,0.0,49,0.00,,,0.00,Wunderground v.1.15,2013-05-04 02:40:00,
2013-05-03 21:50:00,51.4,33.9,30.04,NW,311,0.0,0.0,51,0.00,,,0.00,Wunderground v.1.15,2013-05-04 02:50:00,
2013-05-03 21:55:00,51.1,34.1,30.04,NW,311,0.0,0.0,52,0.00,,,0.00,Wunderground v.1.15,2013-05-04 02:55:00,
2013-05-03 22:00:00,50.9,33.9,30.04,NW,311,0.0,0.0,52,0.00,,,0.00,Wunderground v.1.15,2013-05-04 03:00:00,
2013-05-03 22:10:00,50.4,33.9,30.04,NW,311,0.0,0.0,53,0.00,,,0.00,Wunderground v.1.15,2013-05-04 03:10:00,
2013-05-03 22:15:00,50.1,34.5,30.04,NW,311,0.0,0.0,55,0.00,,,0.00,Wunderground v.1.15,2013-05-04 03:15:00,
2013-05-03 22:20:00,49.9,34.4,30.04,NW,311,0.0,0.0,55,0.00,,,0.00,Wunderground v.1.15,2013-05-04 03:20:00,
2013-05-03 22:25:00,49.7,35.1,30.04,NW,311,0.0,0.0,57,0.00,,,0.00,Wunderground v.1.15,2013-05-04 03:25:00,
2013-05-03 22:35:00,49.4,35.7,30.04,NW,311,0.0,0.0,59,0.00,,,0.00,Wunderground v.1.15,2013-05-04 03:35:00,
2013-05-03 22:40:00,49.1,35.4,30.04,NW,311,0.0,0.0,59,0.00,,,0.00,Wunderground v.1.15,2013-05-04 03:40:00,
2013-05-03 22:45:00,48.9,35.2,30.04,NW,311,0.0,0.0,59,0.00,,,0.00,Wunderground v.1.15,2013-05-04 03:45:00,
2013-05-03 22:50:00,48.7,35.0,30.04,NW,311,0.0,0.0,59,0.00,,,0.00,Wunderground v.1.15,2013-05-04 03:50:00,
2013-05-03 23:00:00,48.2,34.5,30.04,NW,311,0.0,0.0,59,0.00,,,0.00,Wunderground v.1.15,2013-05-04 04:00:00,
2013-05-03 23:05:00,48.1,34.9,30.04,NW,311,0.0,0.0,60,0.00,,,0.00,Wunderground v.1.15,2013-05-04 04:05:00,
2013-05-03 23:10:00,47.9,35.1,30.04,NW,311,0.0,0.0,61,0.00,,,0.00,Wunderground v.1.15,2013-05-04 04:10:00,
2013-05-03 23:15:00,47.8,35.0,30.04,NW,311,0.0,0.0,61,0.00,,,0.00,Wunderground v.1.15,2013-05-04 04:15:00,
2013-05-03 23:20:00,47.6,35.2,30.04,NW,311,0.0,0.0,62,0.00,,,0.00,Wunderground v.1.15,2013-05-04 04:20:00,
2013-05-03 23:25:00,47.4,35.4,30.04,NW,311,0.0,0.0,63,0.00,,,0.00,Wunderground v.1.15,2013-05-04 04:25:00,
2013-05-03 23:30:00,47.3,35.3,30.03,NW,311,0.0,0.0,63,0.00,,,0.00,Wunderground v.1.15,2013-05-04 04:30:00,
2013-05-03 23:35:00,47.1,35.1,30.03,NW,311,0.0,0.0,63,0.00,,,0.00,Wunderground v.1.15,2013-05-04 04:35:00,
2013-05-03 23:40:00,47.0,35.4,30.03,NW,311,0.0,0.0,64,0.00,,,0.00,Wunderground v.1.15,2013-05-04 04:40:00,
2013-05-03 23:45:00,46.8,35.3,30.03,NW,311,0.0,0.0,64,0.00,,,0.00,Wunderground v.1.15,2013-05-04 04:45:00,
2013-05-03 23:50:00,46.5,35.0,30.03,NW,311,0.0,0.0,64,0.00,,,0.00,Wunderground v.1.15,2013-05-04 04:50:00,
2013-05-03 23:55:00,46.4,35.3,30.02,NW,311,0.0,0.0,65,0.00,,,0.00,Wunderground v.1.15,2013-05-04 04:55:00,